DGFRA EDLP-EDDP

Flight info

Callsign DGFRA
Flight time N/A
Altitude 17000
Route WRB1X WRB Z190 ERSET N858 MAXOT T212 LASTO T956 GOXLI GOXLI1R
Aircraft DA42/L-BDGLORVWY/S

Departure

Time 2026-05-08 20:15
Airport Paderborn Lippstadt Airport (EDLP)

Arrival

Time N/A
Airport Leipzig/Halle Airport (EDDP)
Time Latitude Longitude Altitude Speed Heading
2026-05-08 19:53 51.60988 8.61547 725 ft 0 kts 238°
2026-05-08 20:07 51.60983 8.61535 725 ft 7 kts 241°
2026-05-08 20:07 51.61021 8.61532 725 ft 14 kts 57°
2026-05-08 20:07 51.61110 8.61527 716 ft 22 kts 326°
2026-05-08 20:08 51.61107 8.61375 712 ft 21 kts 237°
2026-05-08 20:08 51.61019 8.61161 713 ft 26 kts 236°
2026-05-08 20:08 51.61033 8.61017 712 ft 8 kts 353°
2026-05-08 20:08 51.61037 8.61016 712 ft 0 kts 355°
2026-05-08 20:10 51.61042 8.61016 712 ft 4 kts 356°
2026-05-08 20:10 51.61049 8.61016 713 ft 0 kts
2026-05-08 20:12 51.61103 8.61050 709 ft 19 kts 26°
2026-05-08 20:12 51.61208 8.61142 710 ft 16 kts 57°
2026-05-08 20:12 51.61223 8.61177 709 ft 0 kts 58°
2026-05-08 20:14 51.61313 8.61396 707 ft 57 kts 57°
2026-05-08 20:14 51.61628 8.62118 762 ft 93 kts 56°
2026-05-08 20:14 51.62000 8.63055 913 ft 102 kts 59°
2026-05-08 20:15 51.62352 8.64031 1149 ft 99 kts 62°
2026-05-08 20:15 51.62736 8.64993 1357 ft 104 kts 60°
2026-05-08 20:15 51.63127 8.65931 1792 ft 101 kts 61°
2026-05-08 20:15 51.63532 8.66893 2105 ft 106 kts 62°
2026-05-08 20:16 51.63945 8.67870 2466 ft 105 kts 63°
2026-05-08 20:16 51.64169 8.68958 2819 ft 102 kts 83°
2026-05-08 20:16 51.64311 8.70094 3136 ft 105 kts 83°
2026-05-08 20:16 51.64455 8.71250 3475 ft 105 kts 81°
2026-05-08 20:17 51.64601 8.72420 3795 ft 107 kts 80°
2026-05-08 20:17 51.64746 8.73591 4151 ft 107 kts 79°
2026-05-08 20:17 51.64895 8.74777 4471 ft 109 kts 79°
2026-05-08 20:17 51.65045 8.75981 4805 ft 110 kts 78°
2026-05-08 20:18 51.65145 8.77215 5126 ft 113 kts 94°
2026-05-08 20:18 51.64846 8.78385 5464 ft 115 kts 123°
2026-05-08 20:18 51.64384 8.79459 5778 ft 118 kts 124°
2026-05-08 20:18 51.63909 8.80545 6111 ft 119 kts 125°
2026-05-08 20:19 51.63429 8.81643 6440 ft 121 kts 125°
2026-05-08 20:19 51.62944 8.82758 6762 ft 122 kts 125°
2026-05-08 20:19 51.62458 8.83876 7089 ft 122 kts 125°
2026-05-08 20:19 51.61971 8.84994 7415 ft 122 kts 126°
2026-05-08 20:20 51.61485 8.86112 7741 ft 122 kts 126°
2026-05-08 20:20 51.60998 8.87231 8068 ft 122 kts 126°
2026-05-08 20:20 51.60509 8.88354 8396 ft 122 kts 126°
2026-05-08 20:20 51.60020 8.89477 8728 ft 123 kts 127°
2026-05-08 20:21 51.59531 8.90600 9058 ft 123 kts 127°
2026-05-08 20:21 51.59041 8.91723 9399 ft 123 kts 127°
2026-05-08 20:21 51.58551 8.92848 9738 ft 123 kts 128°
2026-05-08 20:21 51.58059 8.93975 10072 ft 123 kts 128°
2026-05-08 20:22 51.57573 8.95090 10367 ft 124 kts 128°
2026-05-08 20:22 51.57068 8.96245 10666 ft 125 kts 128°
2026-05-08 20:22 51.56572 8.97381 10960 ft 126 kts 128°
2026-05-08 20:22 51.56066 8.98541 11266 ft 127 kts 128°
2026-05-08 20:23 51.55555 8.99710 11572 ft 128 kts 128°
2026-05-08 20:23 51.55038 9.00891 11884 ft 130 kts 128°
2026-05-08 20:23 51.54518 9.02081 12189 ft 131 kts 128°
2026-05-08 20:23 51.53992 9.03282 12504 ft 132 kts 128°
2026-05-08 20:24 51.53461 9.04494 12817 ft 133 kts 127°
2026-05-08 20:24 51.52926 9.05716 13133 ft 134 kts 127°
2026-05-08 20:24 51.52385 9.06949 13447 ft 136 kts 127°
2026-05-08 20:24 51.51839 9.08194 13764 ft 137 kts 127°
2026-05-08 20:25 51.51289 9.09448 14076 ft 138 kts 127°
2026-05-08 20:25 51.50736 9.10709 14369 ft 139 kts 127°
2026-05-08 20:25 51.50135 9.11921 14654 ft 139 kts 131°
2026-05-08 20:25 51.49533 9.13142 14942 ft 140 kts 131°
2026-05-08 20:26 51.48926 9.14369 15224 ft 141 kts 131°
2026-05-08 20:26 51.48313 9.15599 15512 ft 142 kts 131°
2026-05-08 20:26 51.47694 9.16837 15802 ft 143 kts 131°
2026-05-08 20:26 51.47072 9.18079 16109 ft 143 kts 131°
2026-05-08 20:27 51.46446 9.19328 16409 ft 144 kts 131°
2026-05-08 20:27 51.45815 9.20585 16707 ft 145 kts 131°
2026-05-08 20:27 51.45181 9.21849 17007 ft 146 kts 132°
2026-05-08 20:27 51.44533 9.23138 17150 ft 156 kts 132°
2026-05-08 20:28 51.43813 9.24564 17170 ft 172 kts 131°
2026-05-08 20:28 51.43035 9.26109 17168 ft 183 kts 131°
2026-05-08 20:28 51.42193 9.27690 17169 ft 190 kts 132°
2026-05-08 20:28 51.41342 9.29349 17170 ft 195 kts 131°
2026-05-08 20:29 51.40474 9.31044 17169 ft 198 kts 131°
2026-05-08 20:29 51.39589 9.32745 17169 ft 200 kts 132°
2026-05-08 20:29 51.38694 9.34453 17169 ft 201 kts 132°
2026-05-08 20:29 51.37794 9.36169 17169 ft 202 kts 132°
2026-05-08 20:30 51.36893 9.37888 17166 ft 202 kts 132°
2026-05-08 20:30 51.36002 9.39587 17166 ft 202 kts 132°
2026-05-08 20:30 51.35098 9.41309 17166 ft 202 kts 132°
2026-05-08 20:30 51.34193 9.43033 17160 ft 203 kts 132°
2026-05-08 20:31 51.33417 9.44901 17153 ft 205 kts 110°
2026-05-08 20:31 51.33155 9.47132 17164 ft 205 kts 96°
2026-05-08 20:31 51.33031 9.49395 17164 ft 205 kts 95°
2026-05-08 20:31 51.32867 9.51658 17166 ft 205 kts 98°
2026-05-08 20:32 51.32653 9.53907 17164 ft 205 kts 99°
2026-05-08 20:32 51.32427 9.56155 17162 ft 205 kts 99°
2026-05-08 20:32 51.32205 9.58406 17170 ft 205 kts 99°
2026-05-08 20:32 51.31984 9.60667 17164 ft 206 kts 99°
2026-05-08 20:33 51.31763 9.62937 17163 ft 207 kts 99°
2026-05-08 20:33 51.31540 9.65208 17165 ft 207 kts 99°
2026-05-08 20:33 51.31318 9.67476 17165 ft 207 kts 99°
2026-05-08 20:33 51.31094 9.69750 17167 ft 207 kts 99°
2026-05-08 20:34 51.30869 9.72032 17163 ft 208 kts 99°
2026-05-08 20:34 51.30643 9.74310 17164 ft 208 kts 99°
2026-05-08 20:34 51.30192 9.78864 17168 ft 207 kts 99°
2026-05-08 20:35 51.29965 9.81146 17168 ft 207 kts 99°
2026-05-08 20:35 51.29738 9.83421 17167 ft 207 kts 99°
2026-05-08 20:35 51.29511 9.85694 17170 ft 207 kts 99°
2026-05-08 20:35 51.29283 9.87970 17167 ft 208 kts 99°
2026-05-08 20:36 51.29055 9.90248 17166 ft 207 kts 99°
2026-05-08 20:36 51.28826 9.92525 17166 ft 208 kts 99°
2026-05-08 20:36 51.28597 9.94800 17168 ft 207 kts 99°
2026-05-08 20:36 51.28367 9.97074 17172 ft 207 kts 99°
2026-05-08 20:37 51.28138 9.99348 17174 ft 208 kts 99°
2026-05-08 20:37 51.27910 10.01592 17175 ft 207 kts 99°
2026-05-08 20:37 51.27677 10.03897 17173 ft 207 kts 99°
2026-05-08 20:37 51.27449 10.06137 17173 ft 208 kts 99°
2026-05-08 20:38 51.27216 10.08420 17171 ft 208 kts 99°
2026-05-08 20:38 51.26983 10.10703 17171 ft 208 kts 100°
2026-05-08 20:38 51.26749 10.12990 17173 ft 209 kts 99°
2026-05-08 20:38 51.26514 10.15276 17173 ft 209 kts 100°
2026-05-08 20:39 51.26279 10.17567 17173 ft 209 kts 100°
2026-05-08 20:39 51.26043 10.19860 17171 ft 209 kts 99°
2026-05-08 20:39 51.25807 10.22150 17173 ft 209 kts 100°
2026-05-08 20:39 51.25570 10.24438 17172 ft 209 kts 100°
2026-05-08 20:40 51.25333 10.26730 17171 ft 209 kts 100°
2026-05-08 20:40 51.25096 10.29021 17171 ft 209 kts 100°
2026-05-08 20:40 51.24858 10.31307 17172 ft 209 kts 100°
2026-05-08 20:40 51.24620 10.33593 17177 ft 209 kts 100°
2026-05-08 20:41 51.24381 10.35878 17177 ft 209 kts 100°
2026-05-08 20:41 51.24142 10.38163 17177 ft 209 kts 100°
2026-05-08 20:41 51.23903 10.40447 17177 ft 209 kts 100°
2026-05-08 20:41 51.23663 10.42731 17178 ft 209 kts 100°
2026-05-08 20:42 51.23424 10.45002 17177 ft 209 kts 100°
2026-05-08 20:42 51.23184 10.47285 17177 ft 209 kts 100°
2026-05-08 20:42 51.22943 10.49567 17178 ft 209 kts 100°
2026-05-08 20:42 51.22701 10.51849 17183 ft 208 kts 100°
2026-05-08 20:43 51.22459 10.54139 17124 ft 212 kts 100°
2026-05-08 20:43 51.22215 10.56439 17178 ft 209 kts 100°
2026-05-08 20:43 51.21971 10.58730 17177 ft 210 kts 100°
2026-05-08 20:43 51.21726 10.61025 17178 ft 210 kts 100°
2026-05-08 20:44 51.21480 10.63321 17178 ft 210 kts 100°
2026-05-08 20:44 51.21235 10.65617 17178 ft 210 kts 100°
2026-05-08 20:44 51.20988 10.67913 17182 ft 210 kts 100°
2026-05-08 20:44 51.20741 10.70212 17180 ft 210 kts 100°
2026-05-08 20:45 51.20494 10.72508 17178 ft 210 kts 100°
2026-05-08 20:45 51.20330 10.74028 17178 ft 210 kts 100°
2026-05-08 20:45 51.20031 10.77072 17179 ft 210 kts 96°
2026-05-08 20:45 51.19896 10.79394 17178 ft 210 kts 95°
2026-05-08 20:46 51.19765 10.81718 17182 ft 210 kts 96°
2026-05-08 20:46 51.19617 10.84034 17179 ft 210 kts 96°